date,time,SUV Intensity [MED/Hr],UV Index,Daily total [MED],Since Last [MED]
18/03/2023,00:04:15,-0.000,0.0,0.0,0.0
18/03/2023,00:05:12,0.000,0.0,0.0,0.0
18/03/2023,00:06:11,-0.000,0.0,0.0,0.0
18/03/2023,00:07:11,0.000,0.0,0.0,0.0
18/03/2023,00:08:11,0.000,0.0,0.0,0.0
18/03/2023,00:09:11,0.001,0.0,0.0,0.0
18/03/2023,00:10:11,-0.000,0.0,0.0,0.0
18/03/2023,00:11:11,0.000,0.0,0.0,0.0
18/03/2023,00:12:11,0.001,0.0,0.0,0.0
18/03/2023,00:13:11,0.001,0.0,0.0,0.0
18/03/2023,00:14:11,0.000,0.0,0.0,0.0
18/03/2023,00:15:11,0.000,0.0,0.0,0.0
18/03/2023,00:16:12,0.000,0.0,0.0,0.0
18/03/2023,00:17:11,0.000,0.0,0.0,0.0
18/03/2023,00:18:11,0.000,0.0,0.0,0.0
18/03/2023,00:19:11,0.000,0.0,0.0,0.0
18/03/2023,00:20:11,0.001,0.0,0.0,0.0
18/03/2023,00:21:10,0.000,0.0,0.0,0.0
18/03/2023,00:22:11,0.000,0.0,0.0,0.0
18/03/2023,00:23:11,0.000,0.0,0.0,0.0
18/03/2023,00:24:11,-0.001,0.0,0.0,0.0
18/03/2023,00:25:11,-0.001,0.0,0.0,0.0
18/03/2023,00:26:12,0.000,0.0,0.0,0.0
18/03/2023,00:27:11,0.000,0.0,0.0,0.0
18/03/2023,00:28:11,0.001,0.0,0.0,0.0
18/03/2023,00:29:11,-0.000,0.0,0.0,0.0
18/03/2023,00:30:11,0.000,0.0,0.0,0.0
18/03/2023,00:31:11,0.001,0.0,0.0,0.0
18/03/2023,00:32:11,0.000,0.0,0.0,0.0
18/03/2023,00:33:11,0.000,0.0,0.0,0.0
18/03/2023,00:34:11,0.000,0.0,0.0,0.0
18/03/2023,00:35:11,0.000,0.0,0.0,0.0
18/03/2023,00:36:11,0.000,0.0,0.0,0.0
18/03/2023,00:37:11,0.001,0.0,0.0,0.0
18/03/2023,00:38:11,-0.000,0.0,0.0,0.0
18/03/2023,00:39:11,0.000,0.0,0.0,0.0
18/03/2023,00:40:11,0.000,0.0,0.0,0.0
18/03/2023,00:41:12,-0.001,0.0,0.0,0.0
18/03/2023,00:42:11,0.000,0.0,0.0,0.0
18/03/2023,00:43:11,-0.001,0.0,0.0,0.0
18/03/2023,00:44:11,-0.000,0.0,0.0,0.0
18/03/2023,00:45:11,0.001,0.0,0.0,0.0
18/03/2023,00:46:11,0.001,0.0,0.0,0.0
18/03/2023,00:47:10,0.000,0.0,0.0,0.0
18/03/2023,00:48:11,0.000,0.0,0.0,0.0
18/03/2023,00:49:11,0.000,0.0,0.0,0.0
18/03/2023,00:50:12,0.001,0.0,0.0,0.0
18/03/2023,00:51:12,0.000,0.0,0.0,0.0
18/03/2023,00:52:12,0.000,0.0,0.0,0.0
18/03/2023,00:53:11,0.000,0.0,0.0,0.0
18/03/2023,00:54:11,0.000,0.0,0.0,0.0
18/03/2023,00:55:11,0.001,0.0,0.0,0.0
18/03/2023,00:56:11,0.001,0.0,0.0,0.0
18/03/2023,00:57:11,0.000,0.0,0.0,0.0
18/03/2023,00:58:11,0.000,0.0,0.0,0.0
18/03/2023,00:59:11,0.001,0.0,0.0,0.0
18/03/2023,01:00:11,0.000,0.0,0.0,0.0
18/03/2023,01:01:11,0.000,0.0,0.0,0.0
18/03/2023,01:02:11,-0.001,0.0,0.0,0.0
18/03/2023,01:03:11,-0.000,0.0,0.0,0.0
18/03/2023,01:04:11,0.001,0.0,0.0,0.0
18/03/2023,01:05:11,0.000,0.0,0.0,0.0
18/03/2023,01:06:11,0.001,0.0,0.0,0.0
18/03/2023,01:07:11,0.000,0.0,0.0,0.0
18/03/2023,01:08:11,-0.000,0.0,0.0,0.0
18/03/2023,01:09:11,0.000,0.0,0.0,0.0
18/03/2023,01:10:11,0.001,0.0,0.0,0.0
18/03/2023,01:11:11,0.001,0.0,0.0,0.0
18/03/2023,01:12:11,0.001,0.0,0.0,0.0
18/03/2023,01:13:11,-0.000,0.0,0.0,0.0
18/03/2023,01:14:12,-0.000,0.0,0.0,0.0
18/03/2023,01:15:11,0.000,0.0,0.0,0.0
18/03/2023,01:16:12,-0.001,0.0,0.0,0.0
18/03/2023,01:17:11,0.001,0.0,0.0,0.0
18/03/2023,01:18:11,-0.000,0.0,0.0,0.0
18/03/2023,01:19:11,-0.000,0.0,0.0,0.0
18/03/2023,01:20:11,-0.001,0.0,0.0,0.0
18/03/2023,01:21:11,0.000,0.0,0.0,0.0
18/03/2023,01:22:11,0.000,0.0,0.0,0.0
18/03/2023,01:23:11,0.001,0.0,0.0,0.0
18/03/2023,01:24:11,0.000,0.0,0.0,0.0
18/03/2023,01:25:11,0.000,0.0,0.0,0.0
18/03/2023,01:26:11,0.000,0.0,0.0,0.0
18/03/2023,01:27:11,0.001,0.0,0.0,0.0
18/03/2023,01:28:11,-0.000,0.0,0.0,0.0
18/03/2023,01:29:11,0.000,0.0,0.0,0.0
18/03/2023,01:30:11,0.000,0.0,0.0,0.0
18/03/2023,01:31:11,0.000,0.0,0.0,0.0
18/03/2023,01:32:11,0.001,0.0,0.0,0.0
18/03/2023,01:33:11,-0.000,0.0,0.0,0.0
18/03/2023,01:34:11,0.000,0.0,0.0,0.0
18/03/2023,01:35:11,0.000,0.0,0.0,0.0
18/03/2023,01:36:12,0.000,0.0,0.0,0.0
18/03/2023,01:37:11,0.000,0.0,0.0,0.0
18/03/2023,01:38:11,0.000,0.0,0.0,0.0
18/03/2023,01:39:11,0.000,0.0,0.0,0.0
18/03/2023,01:40:11,0.000,0.0,0.0,0.0
18/03/2023,01:41:33,0.000,0.0,0.0,0.0
18/03/2023,01:43:12,-0.001,0.0,0.0,0.0
18/03/2023,01:44:11,-0.000,0.0,0.0,0.0
18/03/2023,01:45:11,0.000,0.0,0.0,0.0
18/03/2023,01:46:11,0.001,0.0,0.0,0.0
18/03/2023,01:47:11,-0.001,0.0,0.0,0.0
18/03/2023,01:48:11,0.000,0.0,0.0,0.0
18/03/2023,01:49:11,0.001,0.0,0.0,0.0
18/03/2023,01:50:11,-0.001,0.0,0.0,0.0
18/03/2023,01:51:12,0.000,0.0,0.0,0.0
18/03/2023,01:52:11,0.000,0.0,0.0,0.0
18/03/2023,01:53:11,0.001,0.0,0.0,0.0
18/03/2023,01:54:11,0.000,0.0,0.0,0.0
18/03/2023,01:55:11,0.001,0.0,0.0,0.0
18/03/2023,01:56:11,0.000,0.0,0.0,0.0
18/03/2023,01:57:11,0.000,0.0,0.0,0.0
18/03/2023,01:58:11,0.001,0.0,0.0,0.0
18/03/2023,01:59:11,-0.001,0.0,0.0,0.0
18/03/2023,02:00:11,0.001,0.0,0.0,0.0
18/03/2023,02:01:11,0.000,0.0,0.0,0.0
18/03/2023,02:02:11,0.000,0.0,0.0,0.0
18/03/2023,02:03:11,0.000,0.0,0.0,0.0
18/03/2023,02:04:11,0.001,0.0,0.0,0.0
18/03/2023,02:05:11,0.000,0.0,0.0,0.0
18/03/2023,02:06:11,0.000,0.0,0.0,0.0
18/03/2023,02:07:11,0.000,0.0,0.0,0.0
18/03/2023,02:08:11,0.000,0.0,0.0,0.0
18/03/2023,02:09:11,0.000,0.0,0.0,0.0
18/03/2023,02:10:11,-0.000,0.0,0.0,0.0
18/03/2023,02:11:11,0.000,0.0,0.0,0.0
18/03/2023,02:12:11,-0.000,0.0,0.0,0.0
18/03/2023,02:13:11,-0.000,0.0,0.0,0.0
18/03/2023,02:14:11,0.000,0.0,0.0,0.0
18/03/2023,02:15:11,-0.001,0.0,0.0,0.0
18/03/2023,02:16:12,0.000,0.0,0.0,0.0
18/03/2023,02:17:11,-0.001,0.0,0.0,0.0
18/03/2023,02:18:11,-0.001,0.0,0.0,0.0
18/03/2023,02:19:11,-0.001,0.0,0.0,0.0
18/03/2023,02:20:11,-0.001,0.0,0.0,0.0
18/03/2023,02:21:11,-0.000,0.0,0.0,0.0
18/03/2023,02:22:12,-0.001,0.0,0.0,0.0
18/03/2023,02:23:11,-0.001,0.0,0.0,0.0
18/03/2023,02:24:11,0.000,0.0,0.0,0.0
18/03/2023,02:25:12,0.000,0.0,0.0,0.0
18/03/2023,02:26:12,-0.001,0.0,0.0,0.0
18/03/2023,02:27:11,-0.001,0.0,0.0,0.0
18/03/2023,02:28:11,0.000,0.0,0.0,0.0
18/03/2023,02:29:11,0.001,0.0,0.0,0.0
18/03/2023,02:30:11,0.000,0.0,0.0,0.0
18/03/2023,02:31:11,0.000,0.0,0.0,0.0
18/03/2023,02:32:11,-0.000,0.0,0.0,0.0
18/03/2023,02:33:11,-0.001,0.0,0.0,0.0
18/03/2023,02:34:12,-0.000,0.0,0.0,0.0
18/03/2023,02:35:11,-0.000,0.0,0.0,0.0
18/03/2023,02:36:12,-0.001,0.0,0.0,0.0
18/03/2023,02:37:12,-0.001,0.0,0.0,0.0
18/03/2023,02:38:12,-0.001,0.0,0.0,0.0
18/03/2023,02:39:11,-0.000,0.0,0.0,0.0
18/03/2023,02:40:11,-0.001,0.0,0.0,0.0
18/03/2023,02:41:11,0.001,0.0,0.0,0.0
18/03/2023,02:42:12,0.000,0.0,0.0,0.0
18/03/2023,02:43:11,-0.001,0.0,0.0,0.0
18/03/2023,02:44:12,-0.000,0.0,0.0,0.0
18/03/2023,02:45:12,-0.000,0.0,0.0,0.0
18/03/2023,02:46:12,0.000,0.0,0.0,0.0
18/03/2023,02:47:11,0.001,0.0,0.0,0.0
18/03/2023,02:48:12,0.001,0.0,0.0,0.0
18/03/2023,02:49:12,0.000,0.0,0.0,0.0
18/03/2023,02:50:12,0.000,0.0,0.0,0.0
18/03/2023,02:51:12,-0.000,0.0,0.0,0.0
18/03/2023,02:52:12,0.000,0.0,0.0,0.0
18/03/2023,02:53:11,-0.001,0.0,0.0,0.0
18/03/2023,02:54:11,-0.001,0.0,0.0,0.0
18/03/2023,02:55:11,-0.000,0.0,0.0,0.0
18/03/2023,02:56:11,-0.000,0.0,0.0,0.0
18/03/2023,02:57:12,0.000,0.0,0.0,0.0
18/03/2023,02:58:11,-0.000,0.0,0.0,0.0
18/03/2023,02:59:11,-0.001,0.0,0.0,0.0
18/03/2023,03:00:12,-0.000,0.0,0.0,0.0
18/03/2023,03:01:12,0.001,0.0,0.0,0.0
18/03/2023,03:02:12,0.000,0.0,0.0,0.0
18/03/2023,03:03:12,-0.000,0.0,0.0,0.0
18/03/2023,03:04:12,0.000,0.0,0.0,0.0
18/03/2023,03:05:11,-0.001,0.0,0.0,0.0
18/03/2023,03:06:12,0.000,0.0,0.0,0.0
18/03/2023,03:07:12,-0.001,0.0,0.0,0.0
18/03/2023,03:08:12,-0.000,0.0,0.0,0.0
18/03/2023,03:09:11,-0.000,0.0,0.0,0.0
18/03/2023,03:10:11,0.001,0.0,0.0,0.0
18/03/2023,03:11:14,-0.000,0.0,0.0,0.0
18/03/2023,03:12:12,0.001,0.0,0.0,0.0
18/03/2023,03:13:11,-0.000,0.0,0.0,0.0
18/03/2023,03:14:11,-0.001,0.0,0.0,0.0
18/03/2023,03:15:11,-0.000,0.0,0.0,0.0
18/03/2023,03:16:12,-0.000,0.0,0.0,0.0
18/03/2023,03:17:11,0.000,0.0,0.0,0.0
18/03/2023,03:18:12,0.001,0.0,0.0,0.0
18/03/2023,03:19:11,-0.000,0.0,0.0,0.0
18/03/2023,03:20:11,-0.000,0.0,0.0,0.0
18/03/2023,03:21:11,-0.000,0.0,0.0,0.0
18/03/2023,03:22:11,-0.001,0.0,0.0,0.0
18/03/2023,03:23:11,0.000,0.0,0.0,0.0
18/03/2023,03:24:12,-0.000,0.0,0.0,0.0
18/03/2023,03:25:12,0.001,0.0,0.0,0.0
18/03/2023,03:26:12,-0.000,0.0,0.0,0.0
18/03/2023,03:27:12,-0.001,0.0,0.0,0.0
18/03/2023,03:28:12,-0.000,0.0,0.0,0.0
18/03/2023,03:29:12,-0.000,0.0,0.0,0.0
18/03/2023,03:30:12,-0.000,0.0,0.0,0.0
18/03/2023,03:31:12,-0.000,0.0,0.0,0.0
18/03/2023,03:32:11,-0.001,0.0,0.0,0.0
18/03/2023,03:33:11,-0.000,0.0,0.0,0.0
18/03/2023,03:34:11,-0.000,0.0,0.0,0.0
18/03/2023,03:35:11,-0.000,0.0,0.0,0.0
18/03/2023,03:36:11,-0.000,0.0,0.0,0.0
18/03/2023,03:37:12,-0.001,0.0,0.0,0.0
18/03/2023,03:38:12,-0.000,0.0,0.0,0.0
18/03/2023,03:39:12,0.000,0.0,0.0,0.0
18/03/2023,03:40:12,0.001,0.0,0.0,0.0
18/03/2023,03:41:12,-0.000,0.0,0.0,0.0
18/03/2023,03:42:11,-0.000,0.0,0.0,0.0
18/03/2023,03:43:12,-0.000,0.0,0.0,0.0
18/03/2023,03:44:11,-0.000,0.0,0.0,0.0
18/03/2023,03:45:11,-0.001,0.0,0.0,0.0
18/03/2023,03:46:12,0.000,0.0,0.0,0.0
18/03/2023,03:47:12,-0.000,0.0,0.0,0.0
18/03/2023,03:48:12,0.001,0.0,0.0,0.0
18/03/2023,03:49:12,0.000,0.0,0.0,0.0
18/03/2023,03:50:12,-0.000,0.0,0.0,0.0
18/03/2023,03:51:11,-0.000,0.0,0.0,0.0
18/03/2023,03:52:12,-0.001,0.0,0.0,0.0
18/03/2023,03:53:12,0.001,0.0,0.0,0.0
18/03/2023,03:54:12,-0.001,0.0,0.0,0.0
18/03/2023,03:55:12,0.000,0.0,0.0,0.0
18/03/2023,03:56:12,-0.001,0.0,0.0,0.0
18/03/2023,03:57:12,0.000,0.0,0.0,0.0
18/03/2023,03:58:12,-0.000,0.0,0.0,0.0
18/03/2023,03:59:12,-0.000,0.0,0.0,0.0
18/03/2023,04:00:12,-0.000,0.0,0.0,0.0
18/03/2023,04:01:11,-0.001,0.0,0.0,0.0
18/03/2023,04:02:12,-0.000,0.0,0.0,0.0
18/03/2023,04:03:12,0.001,0.0,0.0,0.0
18/03/2023,04:04:11,-0.000,0.0,0.0,0.0
18/03/2023,04:05:11,-0.000,0.0,0.0,0.0
18/03/2023,04:06:11,-0.001,0.0,0.0,0.0
18/03/2023,04:07:11,-0.000,0.0,0.0,0.0
18/03/2023,04:08:11,0.001,0.0,0.0,0.0
18/03/2023,04:09:11,-0.000,0.0,0.0,0.0
18/03/2023,04:10:11,-0.000,0.0,0.0,0.0
18/03/2023,04:11:10,-0.000,0.0,0.0,0.0
18/03/2023,04:12:10,-0.001,0.0,0.0,0.0
18/03/2023,04:13:11,0.000,0.0,0.0,0.0
18/03/2023,04:14:11,-0.000,0.0,0.0,0.0
18/03/2023,04:15:11,-0.001,0.0,0.0,0.0
18/03/2023,04:16:11,-0.000,0.0,0.0,0.0
18/03/2023,04:17:12,-0.000,0.0,0.0,0.0
18/03/2023,04:18:12,0.000,0.0,0.0,0.0
18/03/2023,04:19:12,-0.000,0.0,0.0,0.0
18/03/2023,04:20:11,-0.000,0.0,0.0,0.0
18/03/2023,04:21:11,-0.000,0.0,0.0,0.0
18/03/2023,04:22:11,-0.001,0.0,0.0,0.0
18/03/2023,04:23:11,-0.001,0.0,0.0,0.0
18/03/2023,04:24:12,-0.000,0.0,0.0,0.0
18/03/2023,04:25:11,-0.001,0.0,0.0,0.0
18/03/2023,04:26:12,-0.000,0.0,0.0,0.0
18/03/2023,04:27:12,-0.000,0.0,0.0,0.0
18/03/2023,04:28:11,-0.000,0.0,0.0,0.0
18/03/2023,04:29:11,0.000,0.0,0.0,0.0
18/03/2023,04:30:12,-0.000,0.0,0.0,0.0
18/03/2023,04:31:12,0.000,0.0,0.0,0.0
18/03/2023,04:32:12,-0.000,0.0,0.0,0.0
18/03/2023,04:33:11,-0.000,0.0,0.0,0.0
18/03/2023,04:34:11,-0.000,0.0,0.0,0.0
18/03/2023,04:35:12,-0.001,0.0,0.0,0.0
18/03/2023,04:36:11,-0.000,0.0,0.0,0.0
18/03/2023,04:37:12,-0.000,0.0,0.0,0.0
18/03/2023,04:38:11,0.001,0.0,0.0,0.0
18/03/2023,04:39:11,-0.000,0.0,0.0,0.0
18/03/2023,04:40:11,-0.000,0.0,0.0,0.0
18/03/2023,04:41:12,-0.000,0.0,0.0,0.0
18/03/2023,04:42:12,0.001,0.0,0.0,0.0
18/03/2023,04:43:12,-0.001,0.0,0.0,0.0
18/03/2023,04:44:12,-0.001,0.0,0.0,0.0
18/03/2023,04:45:11,-0.000,0.0,0.0,0.0
18/03/2023,04:46:11,-0.001,0.0,0.0,0.0
18/03/2023,04:47:11,-0.001,0.0,0.0,0.0
18/03/2023,04:48:11,-0.000,0.0,0.0,0.0
18/03/2023,04:49:11,-0.001,0.0,0.0,0.0
18/03/2023,04:50:12,-0.000,0.0,0.0,0.0
18/03/2023,04:51:11,-0.000,0.0,0.0,0.0
18/03/2023,04:52:11,-0.000,0.0,0.0,0.0
18/03/2023,04:53:12,-0.000,0.0,0.0,0.0
18/03/2023,04:54:11,0.000,0.0,0.0,0.0
18/03/2023,04:55:12,-0.000,0.0,0.0,0.0
18/03/2023,04:56:12,0.000,0.0,0.0,0.0
18/03/2023,04:57:12,-0.000,0.0,0.0,0.0
18/03/2023,04:58:12,-0.000,0.0,0.0,0.0
18/03/2023,04:59:12,0.000,0.0,0.0,0.0
18/03/2023,05:00:12,0.001,0.0,0.0,0.0
18/03/2023,05:01:12,-0.001,0.0,0.0,0.0
18/03/2023,05:02:12,0.000,0.0,0.0,0.0
18/03/2023,05:03:12,-0.000,0.0,0.0,0.0
18/03/2023,05:04:12,-0.001,0.0,0.0,0.0
18/03/2023,05:05:12,-0.001,0.0,0.0,0.0
18/03/2023,05:06:12,-0.001,0.0,0.0,0.0
18/03/2023,05:07:12,-0.001,0.0,0.0,0.0
18/03/2023,05:08:12,-0.000,0.0,0.0,0.0
18/03/2023,05:09:12,-0.000,0.0,0.0,0.0
18/03/2023,05:10:12,-0.000,0.0,0.0,0.0
18/03/2023,05:11:12,-0.000,0.0,0.0,0.0
18/03/2023,05:12:12,-0.000,0.0,0.0,0.0
18/03/2023,05:13:12,0.000,0.0,0.0,0.0
18/03/2023,05:14:12,-0.000,0.0,0.0,0.0
18/03/2023,05:15:12,-0.000,0.0,0.0,0.0
18/03/2023,05:16:11,-0.001,0.0,0.0,0.0
18/03/2023,05:17:11,0.000,0.0,0.0,0.0
18/03/2023,05:18:11,0.000,0.0,0.0,0.0
18/03/2023,05:19:11,-0.001,0.0,0.0,0.0
18/03/2023,05:20:11,0.001,0.0,0.0,0.0
18/03/2023,05:21:12,0.001,0.0,0.0,0.0
18/03/2023,05:22:12,0.001,0.0,0.0,0.0
18/03/2023,05:23:12,0.000,0.0,0.0,0.0
18/03/2023,05:24:12,0.000,0.0,0.0,0.0
18/03/2023,05:25:12,0.000,0.0,0.0,0.0
18/03/2023,05:26:11,0.000,0.0,0.0,0.0
18/03/2023,05:27:12,0.001,0.0,0.0,0.0
18/03/2023,05:28:12,-0.000,0.0,0.0,0.0
18/03/2023,05:29:11,-0.000,0.0,0.0,0.0
18/03/2023,05:30:12,-0.001,0.0,0.0,0.0
18/03/2023,05:31:12,-0.000,0.0,0.0,0.0
18/03/2023,05:32:11,-0.001,0.0,0.0,0.0
18/03/2023,05:33:14,0.001,0.0,0.0,0.0
18/03/2023,05:34:11,-0.001,0.0,0.0,0.0
18/03/2023,05:35:12,0.001,0.0,0.0,0.0
18/03/2023,05:36:12,-0.000,0.0,0.0,0.0
18/03/2023,05:37:12,-0.001,0.0,0.0,0.0
18/03/2023,05:38:11,0.000,0.0,0.0,0.0
18/03/2023,05:39:10,-0.001,0.0,0.0,0.0
18/03/2023,05:40:12,0.001,0.0,0.0,0.0
18/03/2023,05:41:12,-0.000,0.0,0.0,0.0
18/03/2023,05:42:12,-0.000,0.0,0.0,0.0
18/03/2023,05:43:12,0.000,0.0,0.0,0.0
18/03/2023,05:44:12,-0.000,0.0,0.0,0.0
18/03/2023,05:45:11,0.000,0.0,0.0,0.0
18/03/2023,05:46:12,-0.001,0.0,0.0,0.0
18/03/2023,05:47:11,0.000,0.0,0.0,0.0
18/03/2023,05:48:11,0.000,0.0,0.0,0.0
18/03/2023,05:49:11,-0.001,0.0,0.0,0.0
18/03/2023,05:50:12,-0.000,0.0,0.0,0.0
18/03/2023,05:51:11,-0.000,0.0,0.0,0.0
18/03/2023,05:52:12,-0.000,0.0,0.0,0.0
18/03/2023,05:53:11,-0.000,0.0,0.0,0.0
18/03/2023,05:54:12,0.000,0.0,0.0,0.0
18/03/2023,05:55:12,-0.000,0.0,0.0,0.0
18/03/2023,05:56:11,-0.000,0.0,0.0,0.0
18/03/2023,05:57:12,-0.000,0.0,0.0,0.0
18/03/2023,05:58:12,0.000,0.0,0.0,0.0
18/03/2023,05:59:12,-0.000,0.0,0.0,0.0
18/03/2023,06:00:12,0.000,0.0,0.0,0.0
18/03/2023,06:01:12,0.000,0.0,0.0,0.0
18/03/2023,06:02:12,0.001,0.0,0.0,0.0
18/03/2023,06:03:12,-0.001,0.0,0.0,0.0
18/03/2023,06:04:12,0.001,0.0,0.0,0.0
18/03/2023,06:05:12,0.001,0.0,0.0,0.0
18/03/2023,06:06:12,0.001,0.0,0.0,0.0
18/03/2023,06:07:12,0.001,0.0,0.0,0.0
18/03/2023,06:08:12,0.001,0.0,0.0,0.0
18/03/2023,06:09:11,0.000,0.0,0.0,0.0
18/03/2023,06:10:12,0.000,0.0,0.0,0.0
18/03/2023,06:11:12,-0.000,0.0,0.0,0.0
18/03/2023,06:12:12,0.000,0.0,0.0,0.0
18/03/2023,06:13:16,-0.001,0.0,0.0,0.0
18/03/2023,06:14:12,0.001,0.0,0.0,0.0
18/03/2023,06:15:12,0.002,0.0,0.0,0.0
18/03/2023,06:16:12,0.001,0.0,0.0,0.0
18/03/2023,06:17:12,0.002,0.0,0.0,0.0
18/03/2023,06:18:12,0.002,0.0,0.0,0.0
18/03/2023,06:19:12,0.001,0.0,0.0,0.0
18/03/2023,06:20:11,0.002,0.0,0.0,0.0
18/03/2023,06:21:16,0.002,0.0,0.0,0.0
18/03/2023,06:22:13,0.002,0.0,0.0,0.0
18/03/2023,06:23:12,0.002,0.0,0.0,0.0
18/03/2023,06:24:12,0.002,0.0,0.0,0.0
18/03/2023,06:25:12,0.002,0.0,0.0,0.0
18/03/2023,06:26:12,0.002,0.0,0.0,0.0
18/03/2023,06:27:11,0.002,0.0,0.0,0.0
18/03/2023,06:28:12,0.004,0.0,0.0,0.0
18/03/2023,06:29:11,0.003,0.0,0.0,0.0
18/03/2023,06:30:12,0.003,0.0,0.0,0.0
18/03/2023,06:31:12,0.002,0.0,0.0,0.0
18/03/2023,06:32:12,0.003,0.0,0.0,0.0
18/03/2023,06:33:12,0.002,0.0,0.0,0.0
18/03/2023,06:34:12,0.003,0.0,0.0,0.0
18/03/2023,06:35:12,0.003,0.0,0.0,0.0
18/03/2023,06:36:12,0.003,0.0,0.0,0.0
18/03/2023,06:37:11,0.003,0.0,0.0,0.0
18/03/2023,06:38:12,0.003,0.0,0.0,0.0
18/03/2023,06:39:12,0.004,0.0,0.0,0.0
18/03/2023,06:40:12,0.004,0.0,0.0,0.0
18/03/2023,06:41:12,0.005,0.0,0.0,0.0
18/03/2023,06:42:12,0.004,0.0,0.0,0.0
18/03/2023,06:43:12,0.004,0.0,0.0,0.0
18/03/2023,06:44:11,0.005,0.0,0.0,0.0
18/03/2023,06:45:12,0.005,0.0,0.0,0.0
18/03/2023,06:46:11,0.005,0.0,0.0,0.0
18/03/2023,06:47:12,0.006,0.0,0.0,0.0
18/03/2023,06:48:12,0.005,0.0,0.0,0.0
18/03/2023,06:49:12,0.006,0.0,0.0,0.0
18/03/2023,06:50:11,0.006,0.0,0.0,0.0
18/03/2023,06:51:35,0.006,0.0,0.0,0.0
18/03/2023,06:53:12,0.006,0.0,0.0,0.0
18/03/2023,06:54:12,0.006,0.0,0.001,0.001
18/03/2023,06:55:12,0.007,0.0,0.001,0.0
18/03/2023,06:56:12,0.006,0.0,0.001,0.0
18/03/2023,06:57:12,0.006,0.0,0.001,0.0
18/03/2023,06:58:12,0.006,0.0,0.001,0.0
18/03/2023,06:59:11,0.005,0.0,0.001,0.0
18/03/2023,07:00:11,0.005,0.0,0.001,0.0
18/03/2023,07:01:12,0.006,0.0,0.001,0.0
18/03/2023,07:02:12,0.007,0.0,0.001,0.0
18/03/2023,07:03:12,0.007,0.0,0.001,0.0
18/03/2023,07:04:11,0.007,0.0,0.001,0.0
18/03/2023,07:05:12,0.008,0.0,0.002,0.001
18/03/2023,07:06:12,0.007,0.0,0.002,0.0
18/03/2023,07:07:12,0.007,0.0,0.002,0.0
18/03/2023,07:08:12,0.007,0.0,0.002,0.0
18/03/2023,07:09:12,0.007,0.0,0.002,0.0
18/03/2023,07:10:11,0.008,0.0,0.002,0.0
18/03/2023,07:11:11,0.010,0.0,0.002,0.0
18/03/2023,07:12:12,0.012,0.0,0.002,0.0
18/03/2023,07:13:12,0.014,0.0,0.003,0.001
18/03/2023,07:14:12,0.015,0.0,0.003,0.0
18/03/2023,07:15:11,0.015,0.0,0.003,0.0
18/03/2023,07:16:12,0.015,0.0,0.003,0.0
18/03/2023,07:17:12,0.015,0.0,0.004,0.001
18/03/2023,07:18:11,0.014,0.0,0.004,0.0
18/03/2023,07:19:11,0.015,0.0,0.004,0.0
18/03/2023,07:20:11,0.014,0.0,0.004,0.0
18/03/2023,07:21:11,0.015,0.0,0.005,0.001
18/03/2023,07:22:11,0.014,0.0,0.005,0.0
18/03/2023,07:23:11,0.014,0.0,0.005,0.0
18/03/2023,07:24:12,0.014,0.0,0.005,0.0
18/03/2023,07:25:11,0.014,0.0,0.006,0.001
18/03/2023,07:26:11,0.015,0.0,0.006,0.0
18/03/2023,07:27:12,0.016,0.0,0.006,0.0
18/03/2023,07:28:12,0.016,0.0,0.006,0.0
18/03/2023,07:29:11,0.016,0.0,0.007,0.001
18/03/2023,07:30:11,0.018,0.0,0.007,0.0
18/03/2023,07:31:11,0.018,0.0,0.007,0.0
18/03/2023,07:32:12,0.020,0.0,0.008,0.001
18/03/2023,07:33:11,0.020,0.0,0.008,0.0
18/03/2023,07:34:11,0.020,0.0,0.008,0.0
18/03/2023,07:35:11,0.020,0.0,0.009,0.001
18/03/2023,07:36:12,0.021,0.0,0.009,0.0
18/03/2023,07:37:12,0.021,0.0,0.009,0.0
18/03/2023,07:38:12,0.022,0.0,0.01,0.001
18/03/2023,07:39:12,0.023,0.0,0.01,0.0
18/03/2023,07:40:12,0.023,0.0,0.01,0.0
18/03/2023,07:41:12,0.024,0.0,0.011,0.001
18/03/2023,07:42:12,0.024,0.0,0.011,0.0
18/03/2023,07:43:12,0.024,0.0,0.012,0.001
18/03/2023,07:44:12,0.025,0.0,0.012,0.0
18/03/2023,07:45:12,0.029,0.0,0.012,0.0
18/03/2023,07:46:11,0.030,0.0,0.013,0.001
18/03/2023,07:47:11,0.032,0.0,0.013,0.0
18/03/2023,07:48:11,0.034,0.0,0.014,0.001
18/03/2023,07:49:12,0.033,0.0,0.015,0.001
18/03/2023,07:50:12,0.034,0.0,0.015,0.0
18/03/2023,07:51:12,0.035,0.0,0.016,0.001
18/03/2023,07:52:12,0.038,0.0,0.016,0.0
18/03/2023,07:53:11,0.036,0.0,0.017,0.001
18/03/2023,07:54:12,0.038,0.0,0.018,0.001
18/03/2023,07:55:12,0.040,0.0,0.018,0.0
18/03/2023,07:56:11,0.042,0.0,0.019,0.001
18/03/2023,07:57:12,0.046,0.0,0.02,0.001
18/03/2023,07:58:12,0.048,0.0,0.02,0.0
18/03/2023,07:59:12,0.048,0.0,0.021,0.001
18/03/2023,08:00:12,0.051,0.0,0.022,0.001
18/03/2023,08:01:12,0.051,0.0,0.023,0.001
18/03/2023,08:02:11,0.050,0.0,0.024,0.001
18/03/2023,08:03:12,0.052,0.0,0.025,0.001
18/03/2023,08:04:11,0.050,0.0,0.025,0.0
18/03/2023,08:05:11,0.048,0.0,0.026,0.001
18/03/2023,08:06:12,0.046,0.0,0.027,0.001
18/03/2023,08:07:12,0.047,0.0,0.028,0.001
18/03/2023,08:08:12,0.049,0.0,0.029,0.001
18/03/2023,08:09:12,0.050,0.0,0.029,0.0
18/03/2023,08:10:12,0.052,0.0,0.03,0.001
18/03/2023,08:11:12,0.055,0.0,0.031,0.001
18/03/2023,08:12:11,0.058,0.0,0.032,0.001
18/03/2023,08:13:12,0.059,0.0,0.033,0.001
18/03/2023,08:14:12,0.059,0.0,0.034,0.001
18/03/2023,08:15:12,0.058,0.0,0.035,0.001
18/03/2023,08:16:12,0.057,0.0,0.036,0.001
18/03/2023,08:17:12,0.057,0.0,0.037,0.001
18/03/2023,08:18:11,0.057,0.0,0.038,0.001
18/03/2023,08:19:11,0.056,0.0,0.039,0.001
18/03/2023,08:20:11,0.056,0.0,0.04,0.001
18/03/2023,08:21:12,0.058,0.0,0.041,0.001
18/03/2023,08:22:11,0.062,0.0,0.042,0.001
18/03/2023,08:23:12,0.066,0.0,0.043,0.001
18/03/2023,08:24:12,0.068,0.0,0.044,0.001
18/03/2023,08:25:13,0.070,0.0,0.045,0.001
18/03/2023,08:26:12,0.072,0.0,0.046,0.001
18/03/2023,08:27:11,0.077,0.0,0.048,0.002
18/03/2023,08:28:11,0.082,0.0,0.049,0.001
18/03/2023,08:29:12,0.085,0.0,0.05,0.001
18/03/2023,08:30:12,0.088,0.0,0.052,0.002
18/03/2023,08:31:12,0.090,0.0,0.053,0.001
18/03/2023,08:32:11,0.094,0.0,0.055,0.002
18/03/2023,08:33:11,0.097,0.0,0.056,0.001
18/03/2023,08:34:12,0.097,0.0,0.058,0.002
18/03/2023,08:35:11,0.094,0.0,0.06,0.002
18/03/2023,08:36:12,0.094,0.0,0.061,0.001
18/03/2023,08:37:11,0.094,0.0,0.063,0.002
18/03/2023,08:38:12,0.095,0.0,0.064,0.001
18/03/2023,08:39:11,0.096,0.0,0.066,0.002
18/03/2023,08:40:11,0.097,0.0,0.067,0.001
18/03/2023,08:41:12,0.095,0.0,0.069,0.002
18/03/2023,08:42:12,0.093,0.0,0.071,0.002
18/03/2023,08:43:12,0.093,0.0,0.072,0.001
18/03/2023,08:44:12,0.093,0.0,0.074,0.002
18/03/2023,08:45:12,0.093,0.0,0.075,0.001
18/03/2023,08:46:11,0.093,0.0,0.077,0.002
18/03/2023,08:47:11,0.093,0.0,0.078,0.001
18/03/2023,08:48:11,0.094,0.0,0.08,0.002
18/03/2023,08:49:12,0.095,0.0,0.082,0.002
18/03/2023,08:50:12,0.095,0.0,0.083,0.001
18/03/2023,08:51:12,0.094,0.0,0.085,0.002
18/03/2023,08:52:12,0.097,0.0,0.086,0.001
18/03/2023,08:53:12,0.101,0.0,0.088,0.002
18/03/2023,08:54:12,0.102,0.0,0.09,0.002
18/03/2023,08:55:12,0.107,0.0,0.091,0.001
18/03/2023,08:56:12,0.118,0.0,0.093,0.002
18/03/2023,08:57:12,0.131,0.0,0.095,0.002
18/03/2023,08:58:12,0.137,0.0,0.098,0.003
18/03/2023,08:59:12,0.139,0.0,0.1,0.002
18/03/2023,09:00:12,0.137,0.0,0.102,0.002
18/03/2023,09:01:12,0.130,0.0,0.104,0.002
18/03/2023,09:02:12,0.120,0.0,0.106,0.002
18/03/2023,09:03:12,0.115,0.0,0.108,0.002
18/03/2023,09:04:12,0.118,0.0,0.11,0.002
18/03/2023,09:05:12,0.121,0.0,0.112,0.002
18/03/2023,09:06:12,0.124,0.0,0.114,0.002
18/03/2023,09:07:12,0.124,0.0,0.116,0.002
18/03/2023,09:08:12,0.120,0.0,0.118,0.002
18/03/2023,09:09:12,0.117,0.0,0.12,0.002
18/03/2023,09:10:12,0.112,0.0,0.122,0.002
18/03/2023,09:11:12,0.108,0.0,0.124,0.002
18/03/2023,09:12:12,0.102,0.0,0.126,0.002
18/03/2023,09:13:12,0.093,0.0,0.128,0.002
18/03/2023,09:14:11,0.087,0.0,0.129,0.001
18/03/2023,09:15:12,0.087,0.0,0.13,0.001
18/03/2023,09:16:12,0.093,0.0,0.132,0.002
18/03/2023,09:17:12,0.097,0.0,0.134,0.002
18/03/2023,09:18:12,0.099,0.0,0.135,0.001
18/03/2023,09:19:12,0.101,0.0,0.137,0.002
18/03/2023,09:20:12,0.105,0.0,0.139,0.002
18/03/2023,09:21:12,0.103,0.0,0.14,0.001
18/03/2023,09:22:12,0.098,0.0,0.142,0.002
18/03/2023,09:23:12,0.094,0.0,0.144,0.002
18/03/2023,09:24:12,0.089,0.0,0.145,0.001
18/03/2023,09:25:12,0.084,0.0,0.147,0.002
18/03/2023,09:26:12,0.081,0.0,0.148,0.001
18/03/2023,09:27:12,0.080,0.0,0.149,0.001
18/03/2023,09:28:12,0.087,0.0,0.151,0.002
18/03/2023,09:29:12,0.101,0.0,0.152,0.001
18/03/2023,09:30:12,0.113,0.0,0.154,0.002
18/03/2023,09:31:12,0.122,0.0,0.156,0.002
18/03/2023,09:32:12,0.121,0.0,0.158,0.002
18/03/2023,09:33:12,0.116,0.0,0.16,0.002
18/03/2023,09:34:12,0.109,0.0,0.162,0.002
18/03/2023,09:35:12,0.103,0.0,0.164,0.002
18/03/2023,09:36:12,0.100,0.0,0.165,0.001
18/03/2023,09:37:12,0.097,0.0,0.167,0.002
18/03/2023,09:38:12,0.097,0.0,0.168,0.001
18/03/2023,09:39:12,0.097,0.0,0.17,0.002
18/03/2023,09:40:12,0.103,0.0,0.172,0.002
18/03/2023,09:41:12,0.108,0.0,0.174,0.002
18/03/2023,09:42:12,0.111,0.0,0.175,0.001
18/03/2023,09:43:12,0.110,0.0,0.177,0.002
18/03/2023,09:44:12,0.110,0.0,0.179,0.002
18/03/2023,09:45:12,0.108,0.0,0.181,0.002
18/03/2023,09:46:12,0.107,0.0,0.183,0.002
18/03/2023,09:47:12,0.106,0.0,0.184,0.001
18/03/2023,09:48:12,0.104,0.0,0.186,0.002
18/03/2023,09:49:12,0.100,0.0,0.188,0.002
18/03/2023,09:50:12,0.097,0.0,0.19,0.002
18/03/2023,09:51:12,0.091,0.0,0.191,0.001
18/03/2023,09:52:12,0.086,0.0,0.193,0.002
18/03/2023,09:53:12,0.084,0.0,0.194,0.001
18/03/2023,09:54:12,0.085,0.0,0.195,0.001
18/03/2023,09:55:12,0.086,0.0,0.197,0.002
18/03/2023,09:56:12,0.087,0.0,0.198,0.001
18/03/2023,09:57:12,0.088,0.0,0.2,0.002
18/03/2023,09:58:12,0.090,0.0,0.201,0.001
18/03/2023,09:59:12,0.094,0.0,0.203,0.002
18/03/2023,10:00:12,0.099,0.0,0.204,0.001
18/03/2023,10:01:13,0.105,0.0,0.206,0.002
18/03/2023,10:02:11,0.110,0.0,0.208,0.002
18/03/2023,10:03:13,0.118,0.0,0.21,0.002
18/03/2023,10:04:12,0.127,0.0,0.212,0.002
18/03/2023,10:05:12,0.136,0.0,0.214,0.002
18/03/2023,10:06:12,0.143,0.0,0.216,0.002
18/03/2023,10:07:12,0.150,0.0,0.219,0.003
18/03/2023,10:08:12,0.161,0.0,0.221,0.002
18/03/2023,10:09:12,0.177,0.0,0.224,0.003
18/03/2023,10:10:12,0.201,0.0,0.227,0.003
18/03/2023,10:11:12,0.228,1.0,0.231,0.004